• In Netherlands
  • List of Countries
  • For 7 days
  • Water Temperature
  • Satellite Maps
  • Weather Map
  • Weather Widgets
  • user-avatar
    Login

    Hourly Weather Kandahar

    Today, 28 April, Friday

    Time Temperature Precipitation Wind Pressure Humidity
    00:00 +23°C° 0 mm 4 mps 675 mmHg 24%
    01:00 +22°C° 0 mm 4 mps 675 mmHg 26%
    02:00 +21°C° 0 mm 3 mps 675 mmHg 28%
    03:00 +21°C° 0 mm 3 mps 675 mmHg 29%
    04:00 +20°C° 0 mm 2 mps 675 mmHg 32%
    05:00 +20°C° 0 mm 3 mps 675 mmHg 31%
    06:00 +20°C° 0 mm 3 mps 675 mmHg 31%
    07:00 +20°C° 0 mm 3 mps 675 mmHg 31%
    08:00 +21°C° 0 mm 3 mps 676 mmHg 28%
    09:00 +22°C° 0 mm 3 mps 676 mmHg 26%
    10:00 +24°C° 0 mm 3 mps 676 mmHg 23%
    11:00 +25°C° 0 mm 4 mps 676 mmHg 21%
    12:00 +27°C° 0 mm 5 mps 676 mmHg 19%
    13:00 +28°C° 0 mm 5 mps 675 mmHg 17%
    14:00 +28°C° 0 mm 6 mps 675 mmHg 17%
    15:00 +29°C° 0 mm 6 mps 675 mmHg 16%
    16:00 +29°C° 0 mm 7 mps 674 mmHg 16%
    17:00 +28°C° 0 mm 6 mps 674 mmHg 17%
    18:00 +28°C° 0 mm 6 mps 674 mmHg 18%
    19:00 +27°C° 0 mm 5 mps 674 mmHg 19%
    20:00 +26°C° 0 mm 5 mps 674 mmHg 19%
    21:00 +26°C° 0 mm 5 mps 674 mmHg 19%
    22:00 +25°C° 0 mm 5 mps 675 mmHg 20%
    23:00 +23°C° 0 mm 4 mps 674 mmHg 21%

    Tomorrow, 29 April, Saturday

    Time Temperature Precipitation Wind Pressure Humidity
    00:00 +22°C° 0 mm 4 mps 674 mmHg 22%
    01:00 +21°C° 0 mm 3 mps 674 mmHg 24%
    02:00 +20°C° 0 mm 3 mps 674 mmHg 24%
    03:00 +20°C° 0 mm 3 mps 674 mmHg 25%
    04:00 +19°C° 0 mm 3 mps 674 mmHg 26%
    05:00 +19°C° 0 mm 3 mps 674 mmHg 24%
    06:00 +19°C° 0 mm 3 mps 674 mmHg 23%
    07:00 +19°C° 0 mm 3 mps 675 mmHg 21%
    08:00 +20°C° 0 mm 3 mps 675 mmHg 20%
    09:00 +21°C° 0 mm 3 mps 675 mmHg 18%
    10:00 +24°C° 0 mm 2 mps 676 mmHg 17%
    11:00 +25°C° 0 mm 3 mps 675 mmHg 16%
    12:00 +26°C° 0 mm 3 mps 675 mmHg 15%
    13:00 +28°C° 0 mm 3 mps 675 mmHg 14%
    14:00 +28°C° 0 mm 4 mps 675 mmHg 13%
    15:00 +29°C° 0 mm 5 mps 674 mmHg 13%
    16:00 +29°C° 0 mm 5 mps 674 mmHg 13%
    17:00 +29°C° 0 mm 5 mps 674 mmHg 13%
    18:00 +28°C° 0 mm 5 mps 674 mmHg 14%
    19:00 +27°C° 0 mm 5 mps 674 mmHg 15%
    20:00 +27°C° 0 mm 4 mps 674 mmHg 16%
    21:00 +26°C° 0 mm 4 mps 675 mmHg 17%
    22:00 +25°C° 0 mm 3 mps 675 mmHg 18%
    23:00 +25°C° 0 mm 3 mps 675 mmHg 19%

    Day after tomorrow, 30 April, Sunday

    Time Temperature Precipitation Wind Pressure Humidity
    00:00 +24°C° 0 mm 3 mps 674 mmHg 20%
    01:00 +22°C° 0 mm 3 mps 674 mmHg 21%
    02:00 +21°C° 0 mm 2 mps 674 mmHg 20%
    03:00 +21°C° 0 mm 2 mps 674 mmHg 20%
    04:00 +20°C° 0 mm 2 mps 674 mmHg 19%
    05:00 +21°C° 0 mm 2 mps 674 mmHg 17%
    06:00 +21°C° 0 mm 2 mps 675 mmHg 15%
    07:00 +23°C° 0 mm 2 mps 675 mmHg 13%
    08:00 +24°C° 0 mm 2 mps 676 mmHg 12%
    09:00 +26°C° 0 mm 2 mps 676 mmHg 10%
    10:00 +27°C° 0 mm 2 mps 676 mmHg 9%
    11:00 +28°C° 0 mm 2 mps 676 mmHg 8%
    12:00 +29°C° 0 mm 3 mps 676 mmHg 7%
    13:00 +32°C° 0 mm 4 mps 675 mmHg 6%
    14:00 +32°C° 0 mm 4 mps 675 mmHg 6%
    15:00 +32°C° 0 mm 5 mps 675 mmHg 6%
    16:00 +33°C° 0 mm 5 mps 674 mmHg 5%
    17:00 +32°C° 0 mm 5 mps 674 mmHg 6%
    18:00 +30°C° 0 mm 5 mps 674 mmHg 6%
    19:00 +29°C° 0 mm 5 mps 674 mmHg 7%
    20:00 +28°C° 0 mm 4 mps 674 mmHg 7%
    21:00 +27°C° 0 mm 3 mps 674 mmHg 8%
    22:00 +26°C° 0 mm 3 mps 675 mmHg 8%
    23:00 +25°C° 0 mm 2 mps 674 mmHg 9%

    1 May, Monday

    Time Temperature Precipitation Wind Pressure Humidity
    00:00 +24°C° 0 mm 2 mps 674 mmHg 10%
    01:00 +23°C° 0 mm 2 mps 674 mmHg 10%
    02:00 +22°C° 0 mm 1 mps 674 mmHg 11%
    03:00 +22°C° 0 mm 1 mps 673 mmHg 11%
    04:00 +21°C° 0 mm 1 mps 673 mmHg 12%
    05:00 +22°C° 0 mm 1 mps 674 mmHg 11%
    06:00 +23°C° 0 mm 1 mps 675 mmHg 10%
    07:00 +25°C° 0 mm 1 mps 675 mmHg 8%
    08:00 +26°C° 0 mm 1 mps 676 mmHg 8%
    09:00 +27°C° 0 mm 1 mps 676 mmHg 7%
    10:00 +29°C° 0 mm 2 mps 676 mmHg 6%
    11:00 +30°C° 0 mm 2 mps 676 mmHg 6%
    12:00 +31°C° 0 mm 3 mps 676 mmHg 5%
    13:00 +33°C° 0 mm 3 mps 675 mmHg 5%
    14:00 +33°C° 0 mm 3 mps 675 mmHg 5%
    15:00 +33°C° 0 mm 4 mps 675 mmHg 4%
    16:00 +34°C° 0 mm 4 mps 674 mmHg 4%
    17:00 +33°C° 0 mm 4 mps 675 mmHg 5%
    18:00 +32°C° 0 mm 4 mps 675 mmHg 5%
    19:00 +30°C° 0 mm 3 mps 675 mmHg 5%
    20:00 +29°C° 0 mm 3 mps 675 mmHg 6%
    21:00 +29°C° 0 mm 3 mps 675 mmHg 6%
    22:00 +28°C° 0 mm 2 mps 675 mmHg 7%
    23:00 +27°C° 0 mm 2 mps 675 mmHg 7%

    2 May, Tuesday

    Time Temperature Precipitation Wind Pressure Humidity
    00:00 +27°C° 0 mm 1 mps 675 mmHg 8%
    01:00 +26°C° 0 mm 1 mps 674 mmHg 8%
    02:00 +26°C° 0 mm 1 mps 674 mmHg 9%
    03:00 +25°C° 0 mm 1 mps 674 mmHg 9%
    04:00 +24°C° 0 mm 1 mps 674 mmHg 10%
    05:00 +25°C° 0 mm 1 mps 674 mmHg 9%
    06:00 +26°C° 0 mm 1 mps 675 mmHg 8%
    07:00 +27°C° 0 mm 1 mps 676 mmHg 8%
    08:00 +28°C° 0 mm 2 mps 676 mmHg 7%
    09:00 +29°C° 0 mm 2 mps 676 mmHg 7%
    10:00 +30°C° 0 mm 2 mps 676 mmHg 6%
    11:00 +32°C° 0 mm 4 mps 676 mmHg 7%
    12:00 +33°C° 0 mm 5 mps 676 mmHg 8%
    13:00 +34°C° 0 mm 6 mps 675 mmHg 9%
    14:00 +34°C° 0 mm 6 mps 675 mmHg 11%
    15:00 +34°C° 0 mm 7 mps 675 mmHg 12%
    16:00 +34°C° 0 mm 7 mps 674 mmHg 13%
    17:00 +33°C° 0 mm 7 mps 674 mmHg 14%
    18:00 +32°C° 0 mm 6 mps 674 mmHg 14%
    19:00 +32°C° 0 mm 6 mps 675 mmHg 15%
    20:00 +30°C° 0 mm 5 mps 675 mmHg 16%
    21:00 +29°C° 0 mm 4 mps 675 mmHg 17%
    22:00 +28°C° 0 mm 3 mps 675 mmHg 17%
    23:00 +27°C° 0 mm 2 mps 675 mmHg 18%

    3 May, Wednesday

    Time Temperature Precipitation Wind Pressure Humidity
    00:00 +27°C° 0 mm 2 mps 674 mmHg 18%
    01:00 +26°C° 0 mm 2 mps 674 mmHg 19%
    02:00 +25°C° 0 mm 2 mps 674 mmHg 20%
    03:00 +24°C° 0 mm 2 mps 674 mmHg 20%
    04:00 +24°C° 0 mm 2 mps 674 mmHg 20%
    05:00 +25°C° 0 mm 2 mps 674 mmHg 19%
    06:00 +26°C° 0 mm 2 mps 675 mmHg 18%
    07:00 +27°C° 0 mm 2 mps 676 mmHg 16%
    08:00 +28°C° 0 mm 3 mps 676 mmHg 15%
    09:00 +30°C° 0 mm 3 mps 676 mmHg 13%
    10:00 +32°C° 0 mm 4 mps 677 mmHg 11%
    11:00 +33°C° 0 mm 5 mps 676 mmHg 10%
    12:00 +34°C° 0 mm 5 mps 676 mmHg 10%
    13:00 +35°C° 0 mm 6 mps 676 mmHg 9%
    14:00 +35°C° 0 mm 6 mps 675 mmHg 8%
    15:00 +35°C° 0 mm 6 mps 675 mmHg 8%
    16:00 +35°C° 0 mm 6 mps 675 mmHg 7%
    17:00 +34°C° 0 mm 6 mps 675 mmHg 7%
    18:00 +33°C° 0 mm 5 mps 675 mmHg 7%
    19:00 +32°C° 0 mm 4 mps 675 mmHg 8%
    20:00 +30°C° 0 mm 4 mps 675 mmHg 8%
    21:00 +29°C° 0 mm 3 mps 675 mmHg 9%
    22:00 +29°C° 0 mm 3 mps 675 mmHg 9%
    23:00 +28°C° 0 mm 3 mps 675 mmHg 10%
    Show more